Location: Northern Prairie Star Party
(53.2167°N, 112.5333°W)
Time: 11:03:19
(UTC-07:00)

Daily predictions for brighter satellites

Satellite Brightness Start Highest point End
(mag) Time Altitude Azimuth Time Altitude Azimuth Time Altitude Azimuth
Cosmos 2333 Rocket 3.4 17:19:10 10° WSW 17:24:34 39° NW 17:29:59 10° NNE
Cosmos 1980 Rocket 4.2 17:22:13 10° NNW 17:24:46 13° N 17:27:19 10° NNE
ERBS 2.9 17:21:32 10° W 17:24:48 43° N 17:28:05 10° ENE
GENESIS II 4.4 17:22:50 10° SSW 17:26:43 59° SE 17:30:37 10° NE
Cosmos 2221 3.2 17:23:18 10° N 17:27:16 33° ENE 17:31:13 10° SE
Lacrosse 4 Rocket 1.4 17:23:40 10° SW 17:27:46 80° NW 17:31:52 10° NE
ALOS 3.2 17:24:18 10° ESE 17:28:12 27° ENE 17:32:07 10° N
Cosmos 1908 3.4 17:24:32 10° N 17:28:22 51° ENE 17:32:09 10° SSE
COSMOS 2428 4.3 17:25:23 10° W 17:30:11 27° NW 17:35:00 10° NNE
Meteor 1-28 Rocket 4.1 17:28:37 10° NNE 17:32:03 30° E 17:35:27 10° SSE
Cosmos 968 Rocket 3.7 17:28:32 10° NNW 17:33:33 46° NE 17:38:30 10° SE
ATLAS 2AS CENTAUR R/B 3.3 17:30:09 10° NW 17:38:15 79° SW 17:45:48 10° SE
IRS-1A Rocket 4.4 17:33:16 10° SE 17:38:39 54° ENE 17:44:10 10° N
COSMO-SKYMED 1 4.0 17:38:09 10° NE 17:41:20 20° E 17:44:31 10° SE
Cosmos 1110 Rocket 4.3 17:37:03 10° SW 17:42:13 68° WNW 17:47:25 10° NNE
FENGYUN 3A 4.1 17:39:52 10° SE 17:44:48 39° ENE 17:49:46 10° N
AQUARIUS 4.2 17:41:45 10° SSE 17:46:16 87° ENE 17:50:48 10° NNW
SL-24 R/B - RUBIN 2 3.9 17:41:40 10° NW 17:46:22 48° NE 17:50:40 10° ESE
CSL-04 Debris 4.3 17:41:56 10° SSE 17:47:24 89° WSW 17:52:56 10° NNW
SL-16 R/B 4.4 17:43:50 10° N 17:48:31 23° NW 17:53:12 10° W
ATLAS 5 CENTAUR R/B 2.9 17:44:22 10° W 17:48:57 38° NNW 17:54:05 10° NE
H-2A R/B 4.2 17:46:59 10° ESE 17:49:33 18° ENE 17:52:10 10° NNE
SL-16 R/B 2.6 17:45:22 10° SW 17:51:02 68° NW 17:56:46 10° NNE
Cosmos 1726 2.2 17:47:54 10° N 17:51:32 51° ENE 17:55:06 10° SSE
Meteor 2-14 Rocket 4.4 17:46:48 10° N 17:52:55 63° ENE 17:58:57 10° SSE
Cosmos 1400 Rocket 3.9 17:50:14 10° SE 17:53:34 25° E 17:56:57 10° NE
Cosmos 1867 3.6 17:49:36 10° SW 17:55:02 77° SE 18:00:22 11° NE
Cosmos 1842 Rocket 3.8 17:52:49 10° NNW 17:57:17 75° W 18:01:42 10° S
Cosmos 1455 4.1 17:58:42 10° NNE 17:59:50 13° NE 17:59:50 13° NE
NOSS 3-4 (A) 3.8 17:54:05 10° NW 18:00:51 66° NE 18:08:09 10° ESE
NOSS 3-4 (C) 3.8 17:54:10 10° NW 18:00:57 66° NE 18:08:15 10° ESE
MOS 1 4.4 17:55:31 10° SE 18:01:00 56° ENE 18:06:31 10° N
Cosmos 2366 rocket 4.3 17:56:22 10° N 18:02:22 44° ENE 18:08:17 10° SE
Cosmos 1461 3.4 17:58:34 10° WSW 18:02:54 63° NW 18:07:10 12° NE
USA 116 4.2 18:00:23 10° NNE 18:04:13 44° E 18:08:30 10° S
Cosmos 1603 3.8 17:58:50 10° SSW 18:04:31 67° ESE 18:10:16 10° NE
Envisat 4.4 18:03:21 14° ENE 18:05:13 17° NE 18:08:24 10° NNE
Cosmos 1943 3.7 18:00:01 10° S 18:05:14 41° ESE 18:10:07 12° NE
METEOR-M 4.1 18:00:03 10° SSE 18:05:24 78° ENE 18:10:47 10° NNW
CZ-2C R/B 4.1 18:00:56 10° NNE 18:05:30 44° E 18:09:59 10° S
Cosmos 1076 Rocket 4.3 18:04:10 10° SSE 18:08:01 31° E 18:11:53 10° NNE
Nadezhda 1 Rocket 4.2 18:04:35 10° SSW 18:10:51 80° WNW 18:17:15 10° N
NOSS 3-3 (A) 4.4 18:07:34 10° SSW 18:13:25 46° ESE 18:18:36 16° NE
NOSS 3-3 (C) 4.4 18:07:41 10° SSW 18:13:31 46° ESE 18:18:42 16° NE
Cosmos 1697 Rocket 4.3 18:10:14 10° NNW 18:13:42 16° NNE 18:15:46 14° NE
Cosmos 2237 Rocket 3.7 18:09:10 10° W 18:14:07 30° NW 18:19:05 10° NNE
Meteor 2-10 3.9 18:12:42 10° NNW 18:17:46 84° ENE 18:22:50 10° SSE
Cosmos 2341 Rocket 4.1 18:12:21 10° NNW 18:18:38 84° W 18:24:56 10° S
Cosmos 1674 2.6 18:15:47 10° S 18:19:32 88° W 18:23:19 10° N
SMAP 4.2 18:16:57 10° S 18:21:27 47° W 18:25:58 10° NNW
Landsat 4 4.4 18:20:02 18° NE 18:22:16 33° E 18:25:41 10° SSE
NOSS 7 (E) 4.3 18:20:19 10° SW 18:23:38 73° SE 18:25:24 25° NE
TELKOM 3 4.3 18:22:52 10° SW 18:24:44 26° SSE 18:25:15 23° SE
Cosmos 909 Rocket 4.4 18:17:31 10° NW 18:25:00 54° NE 18:30:37 13° ESE
Okean 3 Rocket 3.9 18:20:47 10° SSE 18:25:07 47° E 18:29:28 10° NNE
SJ-6B 4.1 18:26:37 20° NE 18:26:37 20° NE 18:28:43 10° N
Cosmos 1766 Rocket 4.4 18:23:26 10° SSE 18:27:08 28° E 18:28:49 22° NE
CZ-4 R/B 2.4 18:23:45 10° S 18:27:53 51° W 18:32:03 10° NNW
SKYMED 2 3.7 18:25:31 10° NNE 18:29:47 51° E 18:34:01 10° S
Ariane Rocket 4.2 18:25:19 10° S 18:30:10 45° W 18:35:04 10° NNW
SPOT 3 Rocket 3.4 18:28:40 10° SSE 18:33:48 75° ENE 18:38:58 10° NNW
Cosmos 2322 Rocket 4.2 18:31:16 10° NNW 18:33:51 13° N 18:36:14 10° NNE
Cosmos 1300 2.7 18:34:08 10° NNW 18:37:59 85° W 18:41:49 10° S
SL-14 R/B 3.4 18:34:31 10° S 18:38:23 52° E 18:41:08 18° NNE
Cosmos 2369 Rocket 3.7 18:33:37 10° NW 18:38:49 39° WSW 18:44:02 10° S
Cosmos 864 Rocket 4.4 18:33:08 10° N 18:39:30 72° ENE 18:45:49 10° SSE
USA 161 4.2 18:39:01 10° NNW 18:40:09 12° WNW 18:41:14 10° W
RESURS DK-1 4.1 18:38:14 10° N 18:40:38 17° NNE 18:40:38 17° NNE
Cosmos 1626 3.7 18:38:59 10° SSE 18:40:36 20° SE 18:40:36 20° SE
YAOGAN 1 3.6 18:40:47 10° S 18:44:58 49° W 18:49:13 10° NNW
Cosmos 1777 Rocket 3.9 18:41:20 10° NNW 18:46:36 74° ENE 18:51:51 10° SSE
Cosmos 2181 Rocket 4.1 18:44:13 10° S 18:50:40 89° W 18:57:09 10° N
Cosmos 2219 Rocket 4.3 18:47:51 10° WNW 18:51:27 17° NNW 18:55:05 10° NNE
NOSS 7 (H) 4.2 18:49:17 10° SW 18:52:35 83° SE 18:53:21 51° NE
USA 215 3.4 18:49:40 26° ENE 18:53:31 65° N 18:59:59 10° W
GEOS 3 Rocket 3.8 18:48:22 10° SE 18:53:42 79° SW 18:59:09 10° NW
SL-16 R/B 4.1 18:51:01 10° NNW 18:53:48 14° N 18:55:14 12° NNE
Cosmos 1151 Rocket 3.6 18:50:03 10° N 18:53:45 36° ENE 18:53:45 36° ENE
Cosmos 1656 Rocket 3.6 18:49:05 10° NNW 18:54:33 84° WSW 19:00:04 10° SSE
Cosmos 1943 Rocket 3.6 18:52:16 10° NW 18:57:29 40° WSW 19:02:38 10° S
ERS-2 2.2 18:54:18 10° SSE 18:58:00 80° WSW 19:01:43 10° NNW
Cosmos 1315 Rocket 2.8 18:54:19 10° S 18:58:10 54° E 18:58:44 48° ENE
Cosmos 1346 Rocket 2.6 18:54:17 10° N 18:58:14 64° ENE 19:02:07 10° SSE
ERBS 2.5 18:58:24 10° WNW 19:01:44 56° NNE 19:01:44 56° NNE
Resurs 01 Rocket 3.4 19:05:00 18° NNE 19:05:00 18° NNE 19:06:27 10° N
Cosmos 1992 Rocket 4.1 18:57:40 10° SSW 19:02:53 76° WNW 19:06:55 17° NNE
Meteor 1-27 4.1 18:57:37 10° N 19:03:18 70° ENE 19:09:02 10° SSE
Cosmos 2098 Rocket 3.4 19:00:06 10° N 19:04:40 67° ENE 19:10:27 10° SSE
Cosmos 2221 4.3 19:00:54 10° NNW 19:04:50 33° W 19:08:46 10° SSW
ALOS 3.1 19:00:52 10° S 19:05:24 52° W 19:10:00 10° NNW
Cosmos 2360 Rocket 4.3 19:04:14 10° NNW 19:06:45 13° N 19:08:38 11° NNE
Lacrosse 4 Rocket 3.5 19:04:04 10° WNW 19:07:06 20° NNW 19:09:07 14° N
Cosmos 2218 Rocket 4.3 19:02:04 10° NNW 19:08:14 68° W 19:14:18 10° S
Cosmos 2333 Rocket 4.4 19:06:56 10° WNW 19:10:32 17° NNW 19:14:00 10° NNE
Cosmos 1980 Rocket 3.7 19:07:02 10° NNW 19:11:05 20° NNE 19:11:05 20° NNE
Cosmos 1515 Rocket 3.5 19:08:31 10° N 19:12:52 58° ENE 19:12:54 58° ENE
Meteor 1-11 4.2 19:07:49 10° S 19:13:14 54° E 19:16:22 25° NNE
NOSS 2-1 (C) 3.5 19:09:32 10° SW 19:13:20 75° NW 19:14:24 49° NNE
NOSS 2-1 (D) 3.5 19:10:11 10° SW 19:13:59 73° NW 19:15:03 48° NNE
Cosmos 1898 Rocket 4.2 19:09:40 10° NNW 19:14:14 36° NE 19:14:14 36° NE
COSMO-SKYMED 1 3.0 19:13:41 10° N 19:17:54 60° WNW 19:22:10 10° SSW
Cosmos 1408 Rocket 3.3 19:16:29 10° S 19:20:47 78° E 19:21:30 60° NNE
Cosmos 2228 Rocket 3.0 19:16:21 10° N 19:20:57 74° ENE 19:23:12 30° SSE
Cosmos 2278 4.4 19:17:18 10° NNW 19:22:19 35° NE 19:22:19 35° NE
H-2A R/B 3.2 19:19:38 10° S 19:23:24 61° WSW 19:27:16 10° NNW
DMSP B5D1-3 4.5 19:24:12 16° NNE 19:28:25 85° WNW 19:33:31 10° SSW
Cosmos 1328 4.0 19:25:06 10° SSW 19:29:07 72° WNW 19:30:02 50° NNW
FengYun 1-2 T 4.5 19:23:36 10° S 19:29:13 71° WSW 19:34:51 10° NNW
Cosmos 1400 Rocket 4.2 19:26:03 10° SW 19:29:53 40° WNW 19:33:04 14° N
ATLAS 5 CENTAUR R/B 3.3 19:30:26 10° WNW 19:34:58 29° N 19:35:42 28° NNE
Cosmos 2369 4.2 19:30:22 10° NNW 19:35:20 42° NNE 19:35:20 42° NNE
SL-16 R/B 4.1 19:31:52 10° W 19:36:15 22° NNW 19:39:47 13° NNE
Cosmos 1455 3.8 19:33:00 10° NNW 19:34:52 27° NNW 19:34:52 27° NNW
NOSS 2-1 (E) 4.0 19:38:29 10° WSW 19:42:21 54° NNW 19:42:32 54° NNW
EO 1 Del DPAF 4.1 19:42:19 43° NW 19:42:53 48° WNW 19:46:35 10° SW
Envisat 2.8 19:43:32 78° ENE 19:43:32 78° ENE 19:48:36 10° NNW
Cosmos 1328 Rocket 4.4 19:43:39 10° NNW 19:47:54 49° W 19:52:07 10° S
Cosmos 1943 4.0 19:43:51 10° WSW 19:49:16 47° NW 19:51:57 28° N
Cosmos 1821 Rocket 3.9 19:48:45 10° N 19:54:55 88° W 19:59:48 17° S
Cosmos 1535 Rocket 4.3 19:48:47 10° N 19:55:01 82° E 19:56:27 55° SSE
Cosmos 1697 Rocket 3.8 19:53:58 10° NNW 19:57:31 32° N 19:57:31 32° N
Cosmos 2237 Rocket 4.4 19:57:11 10° NW 20:00:08 14° NNW 20:01:55 13° N
NOSS 3-3 (A) 4.4 19:57:58 10° WSW 20:04:14 61° NNW 20:06:04 46° NNE
NOSS 3-3 (C) 4.4 19:58:04 10° WSW 20:04:20 61° NNW 20:06:09 46° NNE
Nadezhda 3 Rocket 4.0 20:04:50 10° SSW 20:11:11 79° WNW 20:17:36 10° N
Cosmos 2322 Rocket 4.2 20:15:52 10° NNW 20:18:03 18° N 20:18:03 18° N
USA 215 3.3 20:37:00 73° NW 20:37:00 73° NW 20:42:55 10° WNW
Cosmos 1934 Rocket 4.4 20:31:53 10° NNW 20:38:08 62° W 20:38:30 61° WSW
Resurs 01 Rocket 4.3 20:42:34 14° NNW 20:42:34 14° NNW 20:43:16 10° NNW
SL-16 R/B 4.3 20:35:19 10° NNW 20:37:06 18° N 20:37:06 18° N
Cosmos 1980 Rocket 4.1 20:50:47 10° NNW 20:52:52 23° NNW 20:52:52 23° NNW
Cosmos 2344 4.3 20:53:10 10° NW 21:02:21 64° NNE 21:02:35 64° NE
ATLAS 5 CENTAUR R/B 4.3 21:15:36 10° NW 21:17:15 20° NW 21:17:15 20° NW
